EST,Max TemperatureF,Mean TemperatureF,Min TemperatureF,Max Dew PointF,MeanDew PointF,Min DewpointF,Max Humidity, Mean Humidity, Min Humidity, Max Sea Level PressureIn, Mean Sea Level PressureIn, Min Sea Level PressureIn, Max VisibilityMiles, Mean VisibilityMiles, Min VisibilityMiles, Max Wind SpeedMPH, Mean Wind SpeedMPH, Max Gust SpeedMPH,PrecipitationIn, CloudCover, Events, WindDirDegrees
2011-12-1,40,32,23,29,25,22,100,82,64,30.35,30.29,30.17,10,10,8,10,6,14,0.00,0,,245
2011-12-2,36,29,22,30,27,21,100,88,75,30.56,30.38,30.22,10,9,6,15,4,21,0.00,3,,261
2011-12-3,42,31,20,29,23,18,100,78,55,30.61,30.52,30.42,10,5,0,15,7,22,0.00,0,Fog,114
2011-12-4,55,44,33,32,29,27,82,59,35,30.39,30.31,30.22,10,10,10,15,10,21,0.00,3,,137
2011-12-5,56,49,41,47,39,31,86,73,59,30.25,30.16,30.02,10,10,5,10,5,,0.04,7,,125
2011-12-6,52,46,40,52,45,39,100,97,93,30.03,29.98,29.93,10,3,0,9,4,16,0.08,8,Fog,290
2011-12-7,40,35,29,40,34,24,100,93,85,29.96,29.83,29.71,10,4,0,20,8,29,0.06,8,Fog-Snow,321
2011-12-8,31,29,26,25,23,21,92,81,69,30.28,30.09,29.86,10,10,10,20,11,24,0.00,6,,246
2011-12-9,39,33,27,29,26,23,92,73,54,30.26,30.22,30.17,10,9,4,18,6,23,T,6,Snow,240
2011-12-10,31,24,17,28,19,12,92,71,50,30.52,30.33,30.19,10,10,7,16,7,20,T,6,Snow,290
2011-12-11,33,23,13,16,12,8,92,65,38,30.63,30.57,30.52,10,10,9,13,3,17,0.00,0,,177
2011-12-12,42,30,17,17,14,10,74,54,34,30.52,30.47,30.39,10,10,10,8,4,10,0.00,0,,154
2011-12-13,44,33,22,23,20,16,75,59,43,30.48,30.44,30.36,10,10,10,8,3,12,0.00,2,,245
2011-12-14,42,37,32,39,33,22,100,80,59,30.40,30.23,30.09,10,8,3,12,4,15,0.15,7,Rain,139
2011-12-15,54,47,39,52,46,30,100,85,70,30.07,29.82,29.72,10,8,2,28,16,38,0.13,8,Rain,227
2011-12-16,40,35,29,27,22,20,75,69,63,30.24,30.14,29.96,10,10,10,28,11,40,0.00,8,,282
2011-12-17,29,26,22,25,22,19,96,83,69,30.21,30.15,30.10,10,8,0,14,7,21,T,8,Fog-Snow,318
2011-12-18,29,26,22,25,22,19,96,87,78,30.25,30.19,30.10,10,9,5,14,5,17,T,7,Snow,232
2011-12-19,41,34,27,35,30,22,85,75,64,30.16,30.03,29.95,10,10,10,22,12,30,0.00,5,,233
2011-12-20,40,36,32,38,34,30,100,93,85,30.17,30.06,29.96,10,3,0,15,4,18,0.13,8,Fog-Snow,98
2011-12-21,54,46,37,52,45,37,100,95,89,29.98,29.80,29.63,10,5,0,25,10,33,1.00,8,Fog-Rain-Thunderstorm,170
2011-12-22,43,40,36,41,39,35,100,95,89,30.09,30.00,29.90,10,8,2,16,6,22,0.52,8,Rain,261
2011-12-23,36,31,25,34,29,20,100,88,75,30.25,30.11,29.89,10,8,0,15,8,21,0.11,8,Fog-Snow,306
2011-12-24,32,27,22,25,20,17,84,74,63,30.44,30.34,30.19,10,10,10,9,4,14,0.00,7,,255
2011-12-25,40,33,26,30,26,23,92,73,54,30.27,30.07,29.93,10,9,2,24,11,35,T,4,Snow,245
2011-12-26,35,31,26,30,26,23,92,78,64,30.32,30.19,30.02,10,9,1,17,8,24,0.03,6,Snow,262
2011-12-27,38,33,27,36,31,23,100,82,64,30.04,29.55,29.32,10,7,3,24,12,35,0.56,7,Rain-Snow,142
2011-12-28,32,24,15,30,18,9,100,81,62,30.01,29.77,29.47,10,6,1,30,14,43,T,7,Snow,288
2011-12-29,34,23,11,31,24,10,92,83,73,30.00,29.86,29.78,10,8,2,12,4,18,0.01,7,Snow,162
2011-12-30,45,39,33,35,32,29,89,76,62,29.93,29.83,29.75,10,10,10,16,8,23,T,7,,184
2011-12-31,41,39,36,40,37,33,100,90,79,30.10,29.90,29.73,10,8,1,18,9,24,0.06,8,Rain,238